| time (UTC) | temp F | wind direction | speed MPH | gust MPH | rain 1hr in | rain 24hr in | rain mn in | humidity % | barometer mb |
| 20260510094911 | 71 | 135 | 2.0 | 5.0 | 0.00 | 0.00 | 0.00 | 54 | 1015.1 |
| 20260510094410 | 71 | 144 | 3.0 | 5.0 | 0.00 | 0.00 | 0.00 | 53 | 1015.1 |
| 20260510093909 | 72 | 99 | 2.0 | 6.0 | 0.00 | 0.00 | 0.00 | 53 | 1015.2 |
| 20260510093409 | 72 | 151 | 3.0 | 9.0 | 0.00 | 0.00 | 0.00 | 52 | 1015.3 |
| 20260510092910 | 72 | 135 | 2.0 | 5.0 | 0.00 | 0.00 | 0.00 | 52 | 1015.5 |
| 20260510092409 | 72 | 202 | 1.0 | 3.0 | 0.00 | 0.00 | 0.00 | 53 | 1015.4 |
| 20260510091910 | 72 | 140 | 2.0 | 3.0 | 0.00 | 0.00 | 0.00 | 53 | 1015.4 |
| 20260510091409 | 72 | 133 | 2.0 | 3.0 | 0.00 | 0.00 | 0.00 | 53 | 1015.5 |
| 20260510090909 | 72 | 124 | 2.0 | 3.0 | 0.00 | 0.00 | 0.00 | 53 | 1015.3 |
| 20260510090409 | 72 | 164 | 1.0 | 3.0 | 0.00 | 0.00 | 0.00 | 53 | 1015.4 |
| 20260510085910 | 71 | 144 | 2.0 | 3.0 | 0.00 | 0.00 | 0.00 | 54 | 1015.5 |
| 20260510085409 | 71 | 96 | 2.0 | 3.0 | 0.00 | 0.00 | 0.00 | 57 | 1015.5 |
| 20260510083909 | 70 | 110 | 2.0 | 3.0 | 0.00 | 0.00 | 0.00 | 59 | 1015.8 |
| 20260510083410 | 70 | 131 | 2.0 | 3.0 | 0.00 | 0.00 | 0.00 | 60 | 1015.8 |
| 20260510082910 | 70 | 114 | 1.0 | 3.0 | 0.00 | 0.00 | 0.00 | 63 | 1015.8 |
| 20260510082409 | 69 | 123 | 2.0 | 3.0 | 0.00 | 0.00 | 0.00 | 63 | 1015.8 |
| 20260510081909 | 69 | 142 | 1.0 | 3.0 | 0.00 | 0.00 | 0.00 | 65 | 1015.7 |
| 20260510081410 | 69 | 132 | 2.0 | 3.0 | 0.00 | 0.00 | 0.00 | 64 | 1015.8 |
| 20260510080910 | 68 | 129 | 2.0 | 3.0 | 0.00 | 0.00 | 0.00 | 68 | 1015.9 |
| 20260510080409 | 68 | 92 | 2.0 | 3.0 | 0.00 | 0.00 | 0.00 | 68 | 1015.8 |
| 20260510075910 | 67 | 79 | 1.0 | 3.0 | 0.00 | 0.00 | 0.00 | 70 | 1015.8 |
| 20260510075410 | 67 | 97 | 2.0 | 3.0 | 0.00 | 0.00 | 0.00 | 71 | 1015.8 |
| 20260510074410 | 66 | 93 | 1.0 | 3.0 | 0.00 | 0.00 | 0.00 | 72 | 1015.7 |
| 20260510073909 | 66 | 72 | 2.0 | 3.0 | 0.00 | 0.00 | 0.00 | 72 | 1015.8 |
| 20260510073410 | 66 | 104 | 2.0 | 3.0 | 0.00 | 0.00 | 0.00 | 72 | 1015.7 |
| 20260510072909 | 65 | 72 | 1.0 | 3.0 | 0.00 | 0.00 | 0.00 | 72 | 1015.7 |
| 20260510071909 | 65 | 71 | 2.0 | 3.0 | 0.00 | 0.00 | 0.00 | 71 | 1015.6 |
| 20260510071410 | 65 | 88 | 1.0 | 3.0 | 0.00 | 0.00 | 0.00 | 71 | 1015.5 |
| 20260510070910 | 65 | 52 | 1.0 | 3.0 | 0.00 | 0.00 | 0.00 | 72 | 1015.6 |
| 20260510070409 | 65 | 46 | 1.0 | 3.0 | 0.00 | 0.00 | 0.00 | 72 | 1015.6 |
| 20260510065910 | 64 | 103 | 1.0 | 3.0 | 0.00 | 0.00 | 0.00 | 72 | 1015.7 |
| 20260510065408 | 64 | 75 | 2.0 | 3.0 | 0.00 | 0.00 | 0.00 | 72 | 1015.8 |
| 20260510064909 | 64 | 45 | 1.0 | 3.0 | 0.00 | 0.00 | 0.00 | 72 | 1015.8 |
| 20260510064409 | 64 | 69 | 1.0 | 3.0 | 0.00 | 0.00 | 0.00 | 72 | 1015.8 |
| 20260510063909 | 63 | 25 | 1.0 | 3.0 | 0.00 | 0.00 | 0.00 | 72 | 1015.8 |
| 20260510063408 | 63 | 53 | 2.0 | 3.0 | 0.00 | 0.00 | 0.00 | 72 | 1015.7 |
| 20260510062909 | 62 | 47 | 2.0 | 3.0 | 0.00 | 0.00 | 0.00 | 73 | 1015.7 |
| 20260510062410 | 62 | 73 | 2.0 | 5.0 | 0.00 | 0.00 | 0.00 | 73 | 1015.6 |
| 20260510061908 | 62 | 75 | 2.0 | 3.0 | 0.00 | 0.00 | 0.00 | 72 | 1015.6 |
| 20260510061409 | 62 | 64 | 2.0 | 3.0 | 0.00 | 0.00 | 0.00 | 72 | 1015.7 |
| 20260510060909 | 62 | 78 | 2.0 | 3.0 | 0.00 | 0.00 | 0.00 | 73 | 1015.8 |
| 20260510060409 | 61 | 53 | 2.0 | 5.0 | 0.00 | 0.00 | 0.00 | 73 | 1015.7 |
| 20260510055909 | 61 | 50 | 2.0 | 3.0 | 0.00 | 0.00 | 0.00 | 74 | 1015.8 |
| 20260510055409 | 61 | 38 | 1.0 | 5.0 | 0.00 | 0.00 | 0.00 | 74 | 1015.9 |
| 20260510054909 | 61 | 63 | 1.0 | 3.0 | 0.00 | 0.00 | 0.00 | 75 | 1015.8 |
| 20260510053409 | 60 | 51 | 3.0 | 3.0 | 0.00 | 0.00 | 0.00 | 78 | 1015.4 |
| 20260510052908 | 59 | 49 | 2.0 | 3.0 | 0.00 | 0.00 | 0.00 | 79 | 1015.7 |
| 20260510052411 | 59 | 64 | 2.0 | 3.0 | 0.00 | 0.00 | 0.00 | 79 | 1015.7 |
| 20260510051908 | 59 | 63 | 2.0 | 3.0 | 0.00 | 0.00 | 0.00 | 79 | 1015.7 |
| 20260510050909 | 59 | 78 | 2.0 | 5.0 | 0.00 | 0.00 | 0.00 | 80 | 1015.9 |
| 20260510045909 | 59 | 83 | 2.0 | 3.0 | 0.00 | 0.00 | 0.00 | 80 | 1016.2 |
| 20260510045408 | 59 | 103 | 2.0 | 3.0 | 0.00 | 0.00 | 0.00 | 80 | 1016.2 |
| 20260510044909 | 59 | 60 | 2.0 | 3.0 | 0.00 | 0.00 | 0.00 | 79 | 1016.3 |
| 20260510043409 | 60 | 139 | 2.0 | 3.0 | 0.00 | 0.00 | 0.00 | 81 | 1016.5 |
| 20260510042909 | 61 | 210 | 0.0 | 2.0 | 0.00 | 0.00 | 0.00 | 82 | 1016.6 |
| 20260510042416 | 61 | 211 | 0.0 | 0.0 | 0.00 | 0.00 | 0.00 | 83 | 1016.6 |
| 20260510041909 | 61 | 211 | 0.0 | 1.0 | 0.00 | 0.00 | 0.00 | 83 | 1016.6 |
| 20260510041409 | 61 | 211 | 0.0 | 0.0 | 0.00 | 0.00 | 0.00 | 83 | 1016.7 |
| 20260510040908 | 61 | 211 | 1.0 | 2.0 | 0.00 | 0.00 | 0.00 | 83 | 1016.8 |
| 20260510035909 | 61 | 211 | 1.0 | 2.0 | 0.00 | 0.00 | 0.00 | 82 | 1017.0 |
| 20260510035409 | 61 | 211 | 0.0 | 3.0 | 0.00 | 0.00 | 0.00 | 81 | 1016.9 |
| 20260510034908 | 61 | 213 | 2.0 | 3.0 | 0.00 | 0.00 | 0.00 | 81 | 1017.0 |
| 20260510034409 | 61 | 218 | 1.0 | 3.0 | 0.00 | 0.00 | 0.00 | 80 | 1017.0 |
| 20260510033909 | 61 | 221 | 1.0 | 2.0 | 0.00 | 0.00 | 0.00 | 80 | 1017.0 |
| 20260510033409 | 61 | 221 | 0.0 | 0.0 | 0.00 | 0.00 | 0.00 | 80 | 1017.0 |
| 20260510032909 | 61 | 221 | 0.0 | 1.0 | 0.00 | 0.00 | 0.00 | 79 | 1016.8 |
| 20260510031908 | 61 | 240 | 1.0 | 3.0 | 0.00 | 0.00 | 0.00 | 78 | 1016.7 |
| 20260510031408 | 62 | 250 | 2.0 | 3.0 | 0.00 | 0.00 | 0.00 | 78 | 1016.8 |
| 20260510030908 | 62 | 346 | 1.0 | 3.0 | 0.00 | 0.00 | 0.00 | 78 | 1016.6 |
| 20260510030409 | 62 | 10 | 1.0 | 2.0 | 0.00 | 0.00 | 0.00 | 78 | 1016.4 |
| 20260510025409 | 62 | 13 | 0.0 | 2.0 | 0.00 | 0.00 | 0.00 | 78 | 1016.0 |
| 20260510024908 | 62 | 13 | 0.0 | 2.0 | 0.00 | 0.00 | 0.00 | 78 | 1015.8 |
| 20260510024409 | 62 | 13 | 0.0 | 2.0 | 0.00 | 0.00 | 0.00 | 79 | 1015.7 |
| 20260510023909 | 62 | 16 | 1.0 | 3.0 | 0.00 | 0.00 | 0.00 | 80 | 1015.7 |
| 20260510023408 | 62 | 297 | 1.0 | 2.0 | 0.00 | 0.00 | 0.00 | 80 | 1015.9 |
| 20260510022908 | 62 | 296 | 1.0 | 2.0 | 0.00 | 0.00 | 0.00 | 80 | 1015.9 |
| 20260510022409 | 62 | 296 | 1.0 | 3.0 | 0.00 | 0.00 | 0.00 | 80 | 1015.9 |
| 20260510021410 | 62 | 260 | 1.0 | 2.0 | 0.00 | 0.00 | 0.00 | 79 | 1016.0 |
| 20260510020908 | 62 | 258 | 1.0 | 2.0 | 0.00 | 0.00 | 0.00 | 79 | 1015.9 |
| 20260510015412 | 62 | 261 | 2.0 | 2.0 | 0.00 | 0.00 | 0.00 | 78 | 1016.0 |
| 20260510014910 | 62 | 290 | 2.0 | 3.0 | 0.00 | 0.00 | 0.00 | 77 | 1016.0 |
| 20260510014409 | 61 | 78 | 0.0 | 1.0 | 0.00 | 0.00 | 0.00 | 77 | 1015.9 |
| 20260510013909 | 61 | 78 | 0.0 | 0.0 | 0.00 | 0.00 | 0.00 | 77 | 1015.8 |
| 20260510013409 | 61 | 78 | 0.0 | 0.0 | 0.00 | 0.00 | 0.00 | 78 | 1015.7 |
| 20260510012909 | 61 | 78 | 0.0 | 0.0 | 0.00 | 0.00 | 0.00 | 78 | 1015.6 |
| 20260510012408 | 61 | 78 | 1.0 | 1.0 | 0.00 | 0.00 | 0.00 | 78 | 1015.6 |
| 20260510011908 | 61 | 78 | 0.0 | 2.0 | 0.00 | 0.00 | 0.00 | 78 | 1015.5 |
| 20260510011409 | 61 | 79 | 1.0 | 3.0 | 0.00 | 0.00 | 0.00 | 78 | 1015.5 |
| 20260510010909 | 62 | 80 | 1.0 | 3.0 | 0.00 | 0.00 | 0.00 | 77 | 1015.7 |
| 20260510010408 | 62 | 80 | 0.0 | 1.0 | 0.00 | 0.00 | 0.00 | 77 | 1015.7 |
| 20260510005909 | 62 | 80 | 0.0 | 2.0 | 0.00 | 0.00 | 0.00 | 78 | 1015.8 |
| 20260510005409 | 62 | 80 | 0.0 | 2.0 | 0.00 | 0.00 | 0.00 | 77 | 1015.9 |
| 20260510004909 | 62 | 80 | 0.0 | 1.0 | 0.00 | 0.00 | 0.00 | 77 | 1016.0 |
| 20260510004408 | 61 | 80 | 0.0 | 0.0 | 0.00 | 0.00 | 0.00 | 77 | 1015.8 |
| 20260510003909 | 61 | 80 | 0.0 | 0.0 | 0.00 | 0.00 | 0.00 | 77 | 1015.7 |
| 20260510003410 | 61 | 81 | 0.0 | 0.0 | 0.00 | 0.00 | 0.00 | 76 | 1015.9 |
| 20260510002410 | 62 | 87 | 2.0 | 3.0 | 0.00 | 0.00 | 0.00 | 74 | 1015.7 |
| 20260510001909 | 62 | 86 | 1.0 | 3.0 | 0.00 | 0.00 | 0.00 | 73 | 1015.7 |
| 20260510001410 | 63 | 85 | 2.0 | 3.0 | 0.00 | 0.00 | 0.00 | 71 | 1015.8 |
| 20260510000909 | 64 | 128 | 1.0 | 3.0 | 0.00 | 0.00 | 0.00 | 70 | 1015.8 |
| 20260510000411 | 64 | 111 | 0.0 | 0.0 | 0.00 | 0.00 | 0.00 | 69 | 1015.8 |
| 20260509234908 | 63 | 111 | 0.0 | 0.0 | 0.00 | 0.00 | 0.00 | 73 | 1015.8 |
| 20260509234415 | 62 | 111 | 0.0 | 0.0 | 0.00 | 0.00 | 0.00 | 74 | 1016.0 |
| 20260509233909 | 62 | 111 | 0.0 | 0.0 | 0.00 | 0.00 | 0.00 | 74 | 1016.2 |
| 20260509233409 | 62 | 111 | 1.0 | 2.0 | 0.00 | 0.00 | 0.00 | 74 | 1016.2 |
| 20260509232909 | 62 | 111 | 1.0 | 2.0 | 0.00 | 0.00 | 0.00 | 74 | 1016.2 |
| 20260509232410 | 62 | 111 | 1.0 | 2.0 | 0.00 | 0.00 | 0.00 | 75 | 1016.3 |
| 20260509231909 | 61 | 111 | 0.0 | 0.0 | 0.00 | 0.00 | 0.00 | 76 | 1016.3 |
| 20260509231409 | 61 | 112 | 1.0 | 2.0 | 0.00 | 0.00 | 0.00 | 77 | 1016.6 |
| 20260509230909 | 60 | 111 | 0.0 | 0.0 | 0.00 | 0.00 | 0.00 | 77 | 1016.7 |
| 20260509230408 | 60 | 111 | 1.0 | 2.0 | 0.00 | 0.00 | 0.00 | 76 | 1016.4 |
| 20260509225408 | 61 | 113 | 1.0 | 2.0 | 0.00 | 0.00 | 0.00 | 76 | 1016.2 |
| 20260509224411 | 61 | 98 | 1.0 | 3.0 | 0.00 | 0.00 | 0.00 | 76 | 1016.2 |
| 20260509223909 | 61 | 97 | 2.0 | 3.0 | 0.00 | 0.00 | 0.00 | 76 | 1016.2 |
| 20260509223409 | 62 | 86 | 1.0 | 3.0 | 0.00 | 0.00 | 0.00 | 76 | 1016.3 |
| 20260509222909 | 62 | 80 | 2.0 | 3.0 | 0.00 | 0.00 | 0.00 | 76 | 1016.3 |
| 20260509222410 | 62 | 55 | 2.0 | 3.0 | 0.00 | 0.00 | 0.00 | 76 | 1016.3 |
| 20260509221909 | 62 | 79 | 2.0 | 3.0 | 0.00 | 0.00 | 0.00 | 76 | 1016.3 |
| 20260509221408 | 62 | 36 | 2.0 | 3.0 | 0.00 | 0.00 | 0.00 | 77 | 1016.3 |
| 20260509220908 | 63 | 49 | 1.0 | 3.0 | 0.00 | 0.00 | 0.00 | 78 | 1016.3 |
| 20260509220409 | 63 | 49 | 2.0 | 3.0 | 0.00 | 0.00 | 0.00 | 78 | 1016.2 |
| 20260509215408 | 64 | 42 | 0.0 | 0.0 | 0.00 | 0.00 | 0.00 | 78 | 1016.3 |
| 20260509214909 | 64 | 66 | 0.0 | 0.0 | 0.00 | 0.00 | 0.00 | 77 | 1016.4 |
| 20260509214409 | 64 | 41 | 0.0 | 2.0 | 0.00 | 0.00 | 0.00 | 77 | 1016.5 |
| 20260509213909 | 64 | 39 | 1.0 | 2.0 | 0.00 | 0.00 | 0.00 | 78 | 1016.6 |
| 20260509212908 | 64 | 45 | 1.0 | 2.0 | 0.00 | 0.00 | 0.00 | 78 | 1016.8 |
| 20260509212408 | 64 | 55 | 2.0 | 3.0 | 0.00 | 0.00 | 0.00 | 79 | 1017.0 |
| 20260509211908 | 64 | 55 | 1.0 | 3.0 | 0.00 | 0.00 | 0.00 | 79 | 1017.2 |
| 20260509211409 | 64 | 55 | 1.0 | 2.0 | 0.00 | 0.00 | 0.00 | 79 | 1017.2 |
| 20260509210908 | 64 | 64 | 1.0 | 2.0 | 0.00 | 0.00 | 0.00 | 80 | 1017.2 |
| 20260509210409 | 64 | 66 | 0.0 | 2.0 | 0.00 | 0.00 | 0.00 | 80 | 1017.4 |
| 20260509205908 | 64 | 67 | 1.0 | 2.0 | 0.00 | 0.00 | 0.00 | 80 | 1017.5 |
| 20260509205409 | 64 | 67 | 1.0 | 2.0 | 0.00 | 0.00 | 0.00 | 81 | 1017.6 |
| 20260509204909 | 64 | 69 | 1.0 | 2.0 | 0.00 | 0.00 | 0.00 | 81 | 1017.5 |
| 20260509204410 | 64 | 72 | 0.0 | 1.0 | 0.00 | 0.00 | 0.00 | 81 | 1017.5 |
| 20260509203909 | 64 | 73 | 1.0 | 2.0 | 0.00 | 0.00 | 0.00 | 81 | 1017.5 |
| 20260509203410 | 65 | 77 | 0.0 | 2.0 | 0.00 | 0.00 | 0.00 | 80 | 1017.5 |
| 20260509202909 | 65 | 80 | 0.0 | 2.0 | 0.00 | 0.00 | 0.00 | 80 | 1017.5 |
| 20260509202408 | 65 | 44 | 1.0 | 3.0 | 0.00 | 0.00 | 0.00 | 80 | 1017.4 |
| 20260509201410 | 65 | 25 | 2.0 | 3.0 | 0.00 | 0.00 | 0.00 | 80 | 1017.4 |
| 20260509200409 | 65 | 259 | 1.0 | 2.0 | 0.00 | 0.00 | 0.00 | 81 | 1017.4 |
| 20260509195908 | 65 | 256 | 0.0 | 2.0 | 0.00 | 0.00 | 0.00 | 81 | 1017.3 |
| 20260509195409 | 65 | 254 | 0.0 | 2.0 | 0.00 | 0.00 | 0.00 | 82 | 1017.3 |
| 20260509194410 | 65 | 252 | 0.0 | 1.0 | 0.00 | 0.00 | 0.00 | 83 | 1017.5 |
| 20260509193909 | 65 | 252 | 1.0 | 2.0 | 0.00 | 0.00 | 0.00 | 83 | 1017.5 |
| 20260509193408 | 65 | 252 | 1.0 | 2.0 | 0.00 | 0.00 | 0.00 | 82 | 1017.5 |
| 20260509192908 | 65 | 252 | 1.0 | 2.0 | 0.00 | 0.00 | 0.00 | 82 | 1017.6 |
| 20260509192408 | 65 | 254 | 1.0 | 2.0 | 0.00 | 0.00 | 0.00 | 82 | 1017.6 |
| 20260509191908 | 65 | 259 | 1.0 | 2.0 | 0.00 | 0.00 | 0.00 | 81 | 1017.6 |
| 20260509191409 | 65 | 255 | 1.0 | 3.0 | 0.00 | 0.00 | 0.00 | 81 | 1017.5 |
| 20260509190909 | 65 | 268 | 2.0 | 3.0 | 0.00 | 0.00 | 0.00 | 81 | 1017.4 |
| 20260509190408 | 66 | 229 | 2.0 | 3.0 | 0.00 | 0.00 | 0.00 | 79 | 1017.3 |
| 20260509185409 | 66 | 170 | 0.0 | 2.0 | 0.00 | 0.00 | 0.00 | 78 | 1017.1 |
| 20260509184408 | 66 | 138 | 1.0 | 2.0 | 0.00 | 0.00 | 0.00 | 78 | 1016.8 |
| 20260509183908 | 66 | 136 | 0.0 | 2.0 | 0.00 | 0.00 | 0.00 | 80 | 1016.8 |
| 20260509183408 | 66 | 136 | 0.0 | 2.0 | 0.00 | 0.00 | 0.00 | 80 | 1016.7 |
| 20260509182909 | 66 | 136 | 0.0 | 3.0 | 0.00 | 0.00 | 0.00 | 80 | 1016.6 |
| 20260509182409 | 66 | 153 | 0.0 | 2.0 | 0.00 | 0.00 | 0.00 | 79 | 1016.6 |
| 20260509181907 | 66 | 152 | 1.0 | 2.0 | 0.00 | 0.00 | 0.00 | 79 | 1016.5 |
| 20260509181409 | 66 | 199 | 1.0 | 3.0 | 0.00 | 0.00 | 0.00 | 78 | 1016.5 |
| 20260509180909 | 66 | 219 | 1.0 | 3.0 | 0.00 | 0.00 | 0.00 | 77 | 1016.6 |
| 20260509175909 | 66 | 230 | 2.0 | 3.0 | 0.00 | 0.00 | 0.00 | 75 | 1016.6 |
| 20260509175409 | 67 | 215 | 2.0 | 3.0 | 0.00 | 0.00 | 0.00 | 72 | 1016.6 |
| 20260509174909 | 67 | 242 | 1.0 | 3.0 | 0.00 | 0.00 | 0.00 | 69 | 1016.5 |
| 20260509173908 | 68 | 157 | 1.0 | 3.0 | 0.00 | 0.00 | 0.00 | 65 | 1016.3 |
| 20260509173408 | 68 | 228 | 1.0 | 3.0 | 0.00 | 0.00 | 0.00 | 63 | 1016.2 |
| 20260509172408 | 69 | 144 | 1.0 | 3.0 | 0.00 | 0.00 | 0.00 | 61 | 1016.1 |
| 20260509171908 | 69 | 189 | 1.0 | 3.0 | 0.00 | 0.00 | 0.00 | 60 | 1016.0 |
| 20260509171409 | 69 | 155 | 1.0 | 2.0 | 0.00 | 0.00 | 0.00 | 58 | 1016.0 |
| 20260509170909 | 69 | 236 | 1.0 | 2.0 | 0.00 | 0.00 | 0.00 | 57 | 1016.0 |
| 20260509170408 | 69 | 192 | 1.0 | 3.0 | 0.00 | 0.00 | 0.00 | 57 | 1015.9 |
| 20260509165909 | 70 | 259 | 2.0 | 3.0 | 0.00 | 0.00 | 0.00 | 55 | 1016.0 |
| 20260509164909 | 71 | 237 | 1.0 | 3.0 | 0.00 | 0.00 | 0.00 | 52 | 1016.0 |
| 20260509164408 | 71 | 191 | 2.0 | 3.0 | 0.00 | 0.00 | 0.00 | 51 | 1016.0 |
| 20260509163908 | 71 | 174 | 1.0 | 3.0 | 0.00 | 0.00 | 0.00 | 52 | 1016.0 |
| 20260509162908 | 71 | 112 | 1.0 | 2.0 | 0.00 | 0.00 | 0.00 | 54 | 1016.0 |
| 20260509162409 | 71 | 130 | 1.0 | 3.0 | 0.00 | 0.00 | 0.00 | 55 | 1016.0 |
| 20260509161909 | 71 | 133 | 1.0 | 3.0 | 0.00 | 0.00 | 0.00 | 56 | 1016.0 |
| 20260509161409 | 72 | 131 | 2.0 | 3.0 | 0.00 | 0.00 | 0.00 | 54 | 1015.9 |
| 20260509160908 | 72 | 122 | 1.0 | 3.0 | 0.00 | 0.00 | 0.00 | 54 | 1015.7 |
| 20260509160409 | 72 | 134 | 1.0 | 3.0 | 0.00 | 0.00 | 0.00 | 56 | 1015.7 |
| 20260509155908 | 72 | 159 | 1.0 | 3.0 | 0.00 | 0.00 | 0.00 | 58 | 1015.7 |
| 20260509155408 | 71 | 104 | 2.0 | 3.0 | 0.00 | 0.00 | 0.00 | 57 | 1015.7 |
| 20260509154908 | 72 | 133 | 2.0 | 3.0 | 0.00 | 0.00 | 0.00 | 58 | 1015.7 |
| 20260509154412 | 71 | 225 | 1.0 | 2.0 | 0.00 | 0.00 | 0.00 | 56 | 1015.8 |
| 20260509153908 | 71 | 126 | 1.0 | 3.0 | 0.00 | 0.00 | 0.00 | 56 | 1016.0 |
| 20260509153410 | 71 | 184 | 1.0 | 3.0 | 0.00 | 0.00 | 0.00 | 58 | 1016.0 |
| 20260509152909 | 71 | 124 | 1.0 | 3.0 | 0.00 | 0.00 | 0.00 | 60 | 1016.1 |
| 20260509152408 | 71 | 225 | 1.0 | 3.0 | 0.00 | 0.00 | 0.00 | 60 | 1016.1 |
| 20260509151909 | 71 | 220 | 1.0 | 3.0 | 0.00 | 0.00 | 0.00 | 62 | 1016.1 |
| 20260509151409 | 70 | 235 | 1.0 | 3.0 | 0.00 | 0.00 | 0.00 | 63 | 1016.1 |
| 20260509150407 | 69 | 231 | 2.0 | 3.0 | 0.00 | 0.00 | 0.00 | 66 | 1016.1 |
| 20260509145909 | 69 | 240 | 2.0 | 3.0 | 0.00 | 0.00 | 0.00 | 67 | 1016.0 |
| 20260509144908 | 70 | 235 | 2.0 | 3.0 | 0.00 | 0.00 | 0.00 | 67 | 1016.0 |
| 20260509143407 | 70 | 238 | 2.0 | 3.0 | 0.00 | 0.00 | 0.00 | 64 | 1015.9 |
| 20260509142908 | 70 | 227 | 2.0 | 3.0 | 0.00 | 0.00 | 0.00 | 67 | 1015.9 |
| 20260509142408 | 70 | 244 | 2.0 | 3.0 | 0.00 | 0.00 | 0.00 | 66 | 1016.0 |
| 20260509141909 | 69 | 201 | 2.0 | 3.0 | 0.00 | 0.00 | 0.00 | 64 | 1016.0 |
| 20260509141407 | 70 | 245 | 2.0 | 3.0 | 0.00 | 0.00 | 0.00 | 63 | 1015.9 |
| 20260509140908 | 70 | 237 | 2.0 | 3.0 | 0.00 | 0.00 | 0.00 | 63 | 1015.8 |
| 20260509140409 | 69 | 234 | 2.0 | 3.0 | 0.00 | 0.00 | 0.00 | 61 | 1015.8 |
| 20260509135910 | 70 | 234 | 2.0 | 3.0 | 0.00 | 0.00 | 0.00 | 62 | 1015.8 |
| 20260509135408 | 70 | 226 | 2.0 | 3.0 | 0.00 | 0.00 | 0.00 | 59 | 1015.8 |
| 20260509134409 | 70 | 230 | 3.0 | 3.0 | 0.00 | 0.00 | 0.00 | 58 | 1016.0 |
| 20260509133909 | 71 | 228 | 2.0 | 3.0 | 0.00 | 0.00 | 0.00 | 58 | 1015.9 |
| 20260509132408 | 69 | 234 | 3.0 | 3.0 | 0.00 | 0.00 | 0.00 | 60 | 1016.0 |
| 20260509130407 | 69 | 235 | 3.0 | 5.0 | 0.00 | 0.00 | 0.00 | 63 | 1016.1 |
| 20260509124908 | 70 | 234 | 2.0 | 3.0 | 0.00 | 0.00 | 0.00 | 63 | 1016.1 |
| 20260509124408 | 70 | 235 | 3.0 | 3.0 | 0.00 | 0.00 | 0.00 | 64 | 1016.1 |
| 20260509123908 | 70 | 221 | 2.0 | 3.0 | 0.00 | 0.00 | 0.00 | 62 | 1016.1 |
| 20260509123408 | 70 | 242 | 2.0 | 3.0 | 0.00 | 0.00 | 0.00 | 63 | 1016.2 |
| 20260509122410 | 70 | 232 | 2.0 | 3.0 | 0.00 | 0.00 | 0.00 | 64 | 1016.1 |
| 20260509121908 | 70 | 240 | 2.0 | 3.0 | 0.00 | 0.00 | 0.00 | 63 | 1016.2 |
| 20260509121409 | 70 | 227 | 2.0 | 3.0 | 0.00 | 0.00 | 0.00 | 64 | 1016.3 |
| 20260509120908 | 70 | 222 | 2.0 | 3.0 | 0.00 | 0.00 | 0.00 | 64 | 1016.3 |
| 20260509120408 | 70 | 72 | 2.0 | 3.0 | 0.00 | 0.00 | 0.00 | 62 | 1016.4 |
| 20260509115907 | 70 | 279 | 1.0 | 3.0 | 0.00 | 0.00 | 0.00 | 66 | 1016.4 |
| 20260509115408 | 69 | 281 | 1.0 | 3.0 | 0.00 | 0.00 | 0.00 | 67 | 1016.4 |
| 20260509114908 | 69 | 183 | 1.0 | 3.0 | 0.00 | 0.00 | 0.00 | 68 | 1016.4 |
| 20260509114408 | 69 | 224 | 3.0 | 5.0 | 0.00 | 0.00 | 0.00 | 66 | 1016.4 |
| 20260509113908 | 69 | 240 | 2.0 | 3.0 | 0.00 | 0.00 | 0.00 | 67 | 1016.4 |
| 20260509113408 | 69 | 230 | 2.0 | 6.0 | 0.00 | 0.00 | 0.00 | 65 | 1016.4 |
| 20260509112908 | 70 | 218 | 3.0 | 3.0 | 0.00 | 0.00 | 0.00 | 63 | 1016.4 |
| 20260509112410 | 69 | 228 | 2.0 | 3.0 | 0.00 | 0.00 | 0.00 | 64 | 1016.3 |
| 20260509111908 | 69 | 214 | 4.0 | 13.0 | 0.00 | 0.00 | 0.00 | 63 | 1016.4 |
| 20260509111407 | 69 | 238 | 2.0 | 3.0 | 0.00 | 0.00 | 0.00 | 65 | 1016.3 |
| 20260509110907 | 69 | 227 | 2.0 | 5.0 | 0.00 | 0.00 | 0.00 | 68 | 1016.3 |
| 20260509110408 | 68 | 222 | 3.0 | 3.0 | 0.00 | 0.00 | 0.00 | 68 | 1016.4 |
| 20260509105908 | 68 | 230 | 2.0 | 3.0 | 0.00 | 0.00 | 0.00 | 68 | 1016.4 |
| 20260509105408 | 68 | 246 | 2.0 | 3.0 | 0.00 | 0.00 | 0.00 | 68 | 1016.4 |
| 20260509104906 | 68 | 232 | 2.0 | 3.0 | 0.00 | 0.00 | 0.00 | 70 | 1016.4 |
| 20260509104408 | 68 | 233 | 2.0 | 3.0 | 0.00 | 0.00 | 0.00 | 70 | 1016.5 |
| 20260509103408 | 68 | 229 | 3.0 | 3.0 | 0.00 | 0.00 | 0.00 | 70 | 1016.5 |
| 20260509102408 | 67 | 222 | 2.0 | 3.0 | 0.00 | 0.00 | 0.00 | 70 | 1016.3 |
| 20260509101908 | 67 | 229 | 3.0 | 3.0 | 0.00 | 0.00 | 0.00 | 71 | 1016.4 |
| 20260509101408 | 67 | 240 | 2.0 | 5.0 | 0.00 | 0.01 | 0.00 | 72 | 1016.3 |
| 20260509100909 | 66 | 241 | 2.0 | 3.0 | 0.00 | 0.01 | 0.00 | 70 | 1016.4 |
| 20260509095908 | 65 | 224 | 3.0 | 3.0 | 0.00 | 0.01 | 0.00 | 71 | 1016.3 |